Flag for Austria Weather past 2 weeks in Jennersdorf, Burgenland, Austria

Now
88 °F

Passing clouds.


Feels Like: 89 °F
Forecast: 65 / 90 °F
Wind: 3 mph from Southeast

Location: Murska Sobota

Current Time: Aug 5, 2015 at 3:37:13 PM

Latest Report: Aug 5, 2015 at 3:00 PM


Visibility: 6 mi

Pressure: 30.00 "Hg

Humidity: 42%

Dew point: 62 °F

Location of JennersdorfLocation

Historic Weather in Jennersdorf — Graph

°F

Jennersdorf temperature yesterday

Maximum temperature yesterday: 87 °F (at 5:00 PM)
Minimum temperature yesterday: 65 °F (at 5:00 AM)
Average temperature yesterday: 76 °F

Past Weeks' High & Low Weather Summary

 TemperatureHumidityPressure
High95 °F (Jul 22, 4:00 PM)98% (Jul 30, 6:00 AM)30.10 "Hg (Jul 30, 6:00 AM)
Low51 °F (Aug 1, 4:00 AM)35% (Jul 31, 3:00 PM)29.72 "Hg (Jul 25, 3:00 PM)
Average70 °F78%29.93 "Hg
* Reported Jul 21 2:00 PM — Aug 5 2:00 PM, Jennersdorf, Weather by CustomWeather, © 2015

Note: Actual official high and low records may vary slightly from our data, if they occured in-between our weather recording intervals... More about our weather records

Advertising

Jennersdorf weather history for previous 24 hours

 ConditionsComfort  
Time TempWeatherWind HumidityBarometerVisibility
2:00 PM
Wed, Aug 5
88 °FPassing clouds.2 mph44%30.01 "Hg6 mi
1:00 PM87 °FWarm.5 mph44%30.03 "HgN/A
12:00 PM87 °FWarm.5 mph47%30.04 "HgN/A
11:00 AM83 °FWarm.2 mph58%30.05 "HgN/A
10:00 AM80 °FWarm.3 mph65%30.04 "HgN/A
8:00 AM72 °FPassing clouds.1 mph90%30.03 "Hg6 mi
7:00 AM69 °FFog.1 mph95%30.02 "Hg4 mi
5:00 AM67 °FMild.1 mph96%30.01 "HgN/A
4:00 AM67 °FMild.2 mph98%30.00 "HgN/A
3:00 AM67 °FMild.1 mph94%29.99 "HgN/A
2:00 AM67 °FMild.1 mph95%29.98 "HgN/A
1:00 AM68 °FMild.1 mph95%29.99 "HgN/A
12:00 AM69 °FMild.1 mph92%29.98 "HgN/A
11:00 PM
Tue, Aug 4
70 °FMild.No wind91%29.97 "HgN/A
10:00 PM72 °FMild.1 mph88%29.95 "HgN/A
9:00 PM76 °FMild.1 mph80%29.93 "HgN/A
8:00 PM82 °FSunny.1 mph64%29.91 "Hg6 mi
7:00 PM85 °FWarm.1 mph58%29.90 "HgN/A
6:00 PM86 °FWarm.2 mph53%29.91 "HgN/A
5:00 PM87 °FWarm.2 mph49%29.92 "HgN/A
4:00 PM86 °FWarm.2 mph55%29.93 "HgN/A
3:00 PM86 °FScattered clouds.3 mph51%29.94 "Hg6 mi
Weather by CustomWeather, © 2015

See weather overviewHow to use our weather pages